Location: Lugrin
(46.4033°N, 6.6674°E)
Time: 08:11:29
(UTC+00:00)

Tsikada Rocket - Pass Details

Date: 24 January 2021
Orbit: 957 x 1009 km, 82.9° (Epoch: 04 March)

Event Time Altitude Azimuth Distance (km) Brightness Sun altitude
Rises 17:00:08 0° 210° (SSW) 3,697 7.9 -6.2°
Reaches altitude 10° 17:02:50 10° 217° (SW) 2,744 7.4 -6.6°
Maximum altitude 17:08:42 41° 287° (WNW) 1,401 5.4 -7.6°
Drops below altitude 10° 17:14:34 10° 356° (N) 2,727 6.2 -8.5°
Sets 17:17:15 0° 4° (N) 3,671 6.8 -9.0°
